Weather History for KNDZ - November, 2012

Change the Weather History Date:

Thursday, November 15, 2012

  Actual Average (KPNS) Record (KPNS)
Temperature  
Mean Temperature 50 °F 61 °F  
Max Temperature 62 °F 71 °F 84 °F (1951)
Min Temperature 39 °F 51 °F 27 °F (1940)
Degree Days  
Heating Degree Days 14 5  
Month to date heating degree days 62  
Since 1 July heating degree days 100  
Cooling Degree Days 0 1  
Month to date cooling degree days 31  
Year to date cooling degree days 2581  
Moisture  
Dew Point 47 °F    
Average Humidity 76    
Maximum Humidity 93    
Minimum Humidity 55    
Precipitation  
Precipitation 0.00 in 0.16 in 2.10 in (1926)
Month to date precipitation 2.41  
Year to date precipitation 58.40  
Snow  
Snow 0.00 in 0.00 in 0.00 in (2002)
Month to date snowfall 0.0  
Since 1 July snowfall 0.0  
Snow Depth -    
Sea Level Pressure  
Sea Level Pressure 30.20 in    
Wind  
Wind Speed 7 mph (NNE)    
Max Wind Speed 13 mph    
Max Gust Speed -    
Visibility 10 miles    
Events      
T = Trace of Precipitation, MM = Missing Value Source: NWS Daily Summary

Daily Weather History Graph

Daily Weather History Graph

Search for Another Location

Airport or City:

Trip Planner

Search our weather history database for the weather conditions in past years. The results will help you decide how hot, cold, wet, or windy it might be!

Date:

Astronomy

Nov. 15, 2012 Rise Set
Actual Time 6:14 AM CST 4:50 PM CST
Civil Twilight 5:49 AM CST 5:15 PM CST
Nautical Twilight 5:20 AM CST 5:45 PM CST
Astronomical Twilight 4:51 AM CST 6:13 PM CST
Moon 8:05 AM CST (11/15) 6:45 PM CST (11/15)
Length of Visible Light 11h 26m
Length of Day
10h 35m
Waxing Crescent, 5% of the Moon is Illuminated
Nov 15
Waxing Crescent
Nov 20
First Quarter
Nov 28
Full
Dec 6
Last Quarter
Dec 13
New

Hourly Weather History & Observations

Time (CST) Temp. Windchill Dew Point Humidity Pressure Visibility Wind Dir Wind Speed Gust Speed Precip Events Conditions
12:56 AM 54.0 °F - 50.0 °F 86% 30.17 in 10.0 mi North 5.8 mph - N/A   Overcast
1:56 AM 54.0 °F - 50.0 °F 86% 30.16 in 10.0 mi NNE 6.9 mph - N/A   Overcast
2:31 AM 53.6 °F - 50.0 °F 88% 30.20 in 10.0 mi North 8.1 mph - N/A   Overcast
2:56 AM 54.0 °F - 50.0 °F 86% 30.16 in 10.0 mi North 6.9 mph - N/A   Overcast
3:56 AM 53.1 °F - 50.0 °F 89% 30.16 in 10.0 mi NNE 5.8 mph - N/A   Overcast
4:06 AM 53.6 °F - 50.0 °F 88% 30.19 in 10.0 mi NNE 5.8 mph - N/A   Overcast
4:25 AM 53.6 °F - 50.0 °F 88% 30.20 in 10.0 mi North 5.8 mph - N/A   Overcast
4:45 AM 53.6 °F - 50.0 °F 88% 30.21 in 10.0 mi North 8.1 mph - N/A   Overcast
4:56 AM 53.1 °F - 50.0 °F 89% 30.17 in 10.0 mi NNE 6.9 mph - N/A   Overcast
5:35 AM 53.6 °F - 48.2 °F 82% 30.21 in 10.0 mi NNE 4.6 mph - N/A   Overcast
5:42 AM 53.6 °F - 48.2 °F 82% 30.21 in 10.0 mi NNE 6.9 mph - N/A   Overcast
5:53 AM 53.6 °F - 48.2 °F 82% 30.22 in 10.0 mi NNE 5.8 mph - N/A   Overcast
5:56 AM 53.1 °F - 48.9 °F 86% 30.18 in 10.0 mi NNE 5.8 mph - N/A   Overcast
6:51 AM 53.6 °F - 50.0 °F 88% 30.23 in 10.0 mi NNE 5.8 mph - N/A   Overcast
6:56 AM 53.1 °F - 50.0 °F 89% 30.20 in 10.0 mi NNE 5.8 mph - N/A   Overcast
7:06 AM 53.6 °F - 48.2 °F 82% 30.23 in 10.0 mi NNE 6.9 mph - N/A   Overcast
7:34 AM 53.6 °F - 48.2 °F 82% 30.24 in 10.0 mi NNE 6.9 mph - N/A   Overcast
7:44 AM 53.6 °F - 48.2 °F 82% 30.24 in 10.0 mi NNE 6.9 mph - N/A   Overcast
7:51 AM 53.6 °F - 48.2 °F 82% 30.25 in 10.0 mi NNE 6.9 mph - N/A   Overcast
7:56 AM 53.1 °F - 48.9 °F 86% 30.21 in 10.0 mi North 9.2 mph - N/A   Overcast
8:13 AM 53.6 °F - 48.2 °F 82% 30.26 in 10.0 mi North 11.5 mph - N/A   Overcast
8:56 AM 54.0 °F - 46.9 °F 77% 30.22 in 10.0 mi North 10.4 mph - N/A   Overcast
9:05 AM 53.6 °F - 46.4 °F 77% 30.26 in 10.0 mi North 12.7 mph - N/A   Overcast
9:56 AM 57.0 °F - 46.9 °F 69% 30.22 in 10.0 mi NNE 8.1 mph - N/A   Overcast
10:56 AM 60.1 °F - 46.9 °F 62% 30.20 in 10.0 mi NNE 10.4 mph - N/A   Overcast
11:21 AM 60.8 °F - 46.4 °F 59% 30.23 in 10.0 mi NE 10.4 mph - N/A   Scattered Clouds
11:39 AM 60.8 °F - 46.4 °F 59% 30.23 in 10.0 mi North 10.4 mph - N/A   Mostly Cloudy
11:56 AM 61.0 °F - 46.0 °F 58% 30.19 in 10.0 mi NE 10.4 mph - N/A   Overcast
12:56 PM 60.1 °F - 45.0 °F 57% 30.17 in 10.0 mi NE 8.1 mph - N/A   Scattered Clouds
1:36 PM 60.8 °F - 46.4 °F 59% 30.20 in 1.8 mi NE 12.7 mph - N/A   Haze
1:46 PM 62.6 °F - 46.4 °F 55% 30.20 in 5.0 mi NNE 11.5 mph - N/A   Haze
1:56 PM 62.1 °F - 46.0 °F 56% 30.17 in 10.0 mi NNE 11.5 mph - N/A   Scattered Clouds
2:06 PM 60.8 °F - 44.6 °F 55% 30.20 in 10.0 mi NNE 9.2 mph - N/A   Mostly Cloudy
2:14 PM 60.8 °F - 44.6 °F 55% 30.20 in 10.0 mi NNE 10.4 mph - N/A   Partly Cloudy
2:54 PM 60.8 °F - 44.6 °F 55% 30.19 in 10.0 mi NNE 11.5 mph - N/A   Mostly Cloudy
2:56 PM 57.9 °F - 45.0 °F 62% 30.16 in 10.0 mi NNE 10.4 mph - N/A   Mostly Cloudy
3:03 PM 60.8 °F - 44.6 °F 55% 30.19 in 10.0 mi NE 10.4 mph - N/A   Partly Cloudy
3:56 PM 57.0 °F - 45.0 °F 64% 30.17 in 10.0 mi NE 10.4 mph - N/A   Mostly Cloudy
4:36 PM 53.6 °F - 44.6 °F 72% 30.21 in 10.0 mi NNE 9.2 mph - N/A   Scattered Clouds
4:56 PM 52.0 °F - 44.1 °F 74% 30.18 in 10.0 mi NNE 8.1 mph - N/A   Clear
5:56 PM 48.9 °F - 43.0 °F 80% 30.20 in 10.0 mi NE 4.6 mph - N/A   Clear
6:56 PM 48.9 °F - 43.0 °F 80% 30.20 in 10.0 mi NE 4.6 mph - N/A   Clear
7:56 PM 48.0 °F - 43.0 °F 83% 30.21 in 10.0 mi NE 5.8 mph - N/A   Clear
8:56 PM 46.9 °F - 42.1 °F 83% 30.21 in 10.0 mi NNE 4.6 mph - N/A   Clear
9:56 PM 46.0 °F 43.9 °F 42.1 °F 86% 30.22 in 10.0 mi NNE 4.6 mph - N/A   Clear
10:56 PM 39.9 °F 37.8 °F 37.9 °F 93% 30.22 in 10.0 mi NNW 3.5 mph - N/A   Clear
11:56 PM 42.1 °F 40.2 °F 39.9 °F 92% 30.22 in 10.0 mi North 3.5 mph - N/A   Clear